Weather History for PAJN - August, 2013

Change the Weather History Date:

Friday, August 23, 2013

  Actual Average Record
Temperature  
Mean Temperature 56 °F 55 °F  
Max Temperature 59 °F 62 °F 80 °F (1979)
Min Temperature 52 °F 48 °F 35 °F (1969)
Degree Days  
Heating Degree Days 9 10  
Month to date heating degree days 137 196  
Since 1 June heating degree days 573 762  
Since 1 July heating degree days 359 447  
Cooling Degree Days 0 0  
Month to date cooling degree days 0 0  
Year to date cooling degree days 9 2  
Since 1 June cooling degree days 9 2  
Growing Degree Days 6 (Base 50)    
Moisture  
Dew Point 52 °F    
Average Humidity 87    
Maximum Humidity 93    
Minimum Humidity 80    
Precipitation  
Precipitation 0.00 in 0.20 in 2.52 in (1974)
Month to date precipitation 3.24 3.97  
Year to date precipitation 39.25 31.41  
Sea Level Pressure  
Sea Level Pressure 29.75 in    
Wind  
Wind Speed 6 mph (East)    
Max Wind Speed 13 mph    
Max Gust Speed 15 mph    
Visibility 10 miles    
Events      
T = Trace of Precipitation, MM = Missing Value Source: NWS Daily Summary

Daily Weather History Graph

Daily Weather History Graph

Search for Another Location

Airport or City:

Trip Planner

Search our weather history database for the weather conditions in past years. The results will help you decide how hot, cold, wet, or windy it might be!

Date:

Astronomy

Aug. 23, 2013 Rise Set
Actual Time 5:38 AM AKDT 8:21 PM AKDT
Civil Twilight 4:53 AM AKDT 9:05 PM AKDT
Nautical Twilight 3:54 AM AKDT 10:04 PM AKDT
Astronomical Twilight 2:30 AM AKDT 11:25 PM AKDT
Moon 8:44 PM AKDT (8/23) 9:37 AM AKDT (8/23)
Length of Visible Light 16h 12m
Length of Day
14h 42m
Waning Gibbous, 90% of the Moon is Illuminated
Aug 23
Waning Gibbous
Aug 28
Last Quarter
Sep 5
New
Sep 12
First Quarter
Sep 19
Full

Hourly Weather History & Observations

Time (AKDT) Temp. Dew Point Humidity Pressure Visibility Wind Dir Wind Speed Gust Speed Precip Events Conditions
12:53 AM 54.0 °F 52.0 °F 93% 29.86 in 10.0 mi East 8.1 mph - N/A   Overcast
1:37 AM 53.1 °F 52.0 °F 96% 29.85 in 10.0 mi Calm Calm - N/A   Overcast
1:53 AM 54.0 °F 52.0 °F 93% 29.85 in 10.0 mi ENE 5.8 mph - N/A   Overcast
2:53 AM 54.0 °F 52.0 °F 93% 29.84 in 10.0 mi East 5.8 mph - N/A   Overcast
3:53 AM 53.1 °F 51.1 °F 93% 29.83 in 10.0 mi ESE 4.6 mph - N/A   Overcast
4:53 AM 53.1 °F 51.1 °F 93% 29.82 in 10.0 mi East 5.8 mph - N/A   Overcast
5:53 AM 53.1 °F 51.1 °F 93% 29.81 in 10.0 mi East 10.4 mph - N/A   Overcast
6:53 AM 53.1 °F 52.0 °F 96% 29.80 in 10.0 mi East 8.1 mph - N/A   Overcast
7:53 AM 54.0 °F 52.0 °F 93% 29.79 in 10.0 mi ESE 8.1 mph - N/A   Overcast
8:53 AM 55.0 °F 52.0 °F 89% 29.79 in 10.0 mi East 4.6 mph - N/A   Overcast
9:53 AM 55.0 °F 52.0 °F 89% 29.78 in 10.0 mi East 6.9 mph - N/A   Overcast
10:53 AM 55.9 °F 52.0 °F 87% 29.77 in 10.0 mi East 10.4 mph - N/A   Overcast
11:53 AM 57.9 °F 53.1 °F 84% 29.76 in 10.0 mi ESE 6.9 mph - N/A   Overcast
12:53 PM 57.9 °F 52.0 °F 81% 29.76 in 10.0 mi ESE 3.5 mph - N/A   Overcast
1:53 PM 59.0 °F 53.1 °F 81% 29.75 in 10.0 mi ESE 4.6 mph - N/A   Overcast
2:53 PM 57.9 °F 52.0 °F 81% 29.73 in 10.0 mi ESE 3.5 mph - N/A   Overcast
3:53 PM 57.0 °F 52.0 °F 83% 29.72 in 10.0 mi East 6.9 mph - N/A   Overcast
4:53 PM 57.0 °F 52.0 °F 83% 29.70 in 10.0 mi East 11.5 mph - 0.00 in   Overcast
5:53 PM 57.0 °F 52.0 °F 83% 29.68 in 10.0 mi East 8.1 mph - N/A   Overcast
6:53 PM 55.9 °F 53.1 °F 90% 29.67 in 10.0 mi East 8.1 mph - N/A   Overcast
7:53 PM 55.9 °F 53.1 °F 90% 29.66 in 10.0 mi ENE 5.8 mph - N/A   Overcast
8:53 PM 55.0 °F 52.0 °F 89% 29.65 in 10.0 mi East 6.9 mph - N/A   Overcast
9:53 PM 54.0 °F 52.0 °F 93% 29.65 in 10.0 mi East 6.9 mph - N/A   Overcast
10:53 PM 54.0 °F 52.0 °F 93% 29.64 in 10.0 mi East 8.1 mph - N/A   Overcast
11:53 PM 54.0 °F 51.1 °F 90% 29.63 in 10.0 mi East 9.2 mph - N/A   Overcast